Regional Weather Roundup
Issued by NWS Boston, MA

Home | Current Version | Previous Version | Text Only | Print | Product List | Glossary On
Versions: 1 2 3 4 5 6 7 8 9 10 11 12 13 14 15 16 17 18 19 20 21 22 23 24 25 26 27 28
000
ASUS41 KBOX 270310
RWRBOX

REGIONAL WEATHER ROUNDUP
NATIONAL WEATHER SERVICE TAUNTON MA
1100 PM EDT WED APR 26 2017

NOTE:  "FAIR" INDICATES FEW OR NO CLOUDS BELOW 12,000 FEET WITH NO
SIGNIFICANT WEATHER AND/OR OBSTRUCTIONS TO VISIBILITY.

MAZALL-270400-
EASTERN MASSACHUSETTS

CITY           SKY/WX    TMP DP  RH WIND       PRES   REMARKS
BOSTON         FOG       50  50 100 N5        29.85R VSB<1/4
BEVERLY        CLOUDY    51  51 100 N6        29.84R FOG
LAWRENCE       FOG       53  51  93 N5        29.87R VSB 1
BEDFORD        CLOUDY    52  50  93 N6        29.84R FOG
BLUE HILL        N/A     51  50  96 NW8       29.83R
NORWOOD        FOG       54  54 100 NW3       29.84R VSB 3/4
MARSHFIELD     FOG       52  52 100 CALM      29.83R VSB 1/4
PLYMOUTH       FOG       54  53  97 SW7       29.84R VSB 3/4
TAUNTON        CLOUDY    56  54  93 W3        29.83F FOG
NEW BEDFORD    CLOUDY    53  53 100 CALM      29.84R FOG
$$

MAZALL-270400-
CAPE COD AND THE ISLANDS

CITY           SKY/WX    TMP DP  RH WIND       PRES   REMARKS
FALMOUTH         N/A    N/A N/A N/A MISG        N/A
HYANNIS        FOG       53  53 100 SE7       29.81F VSB 3/4
CHATHAM        FOG       51  51 100 S5        29.84F VSB 1/2
PROVINCETOWN   LGT RAIN  52  52 100 S7        29.83R VSB 3/4
NANTUCKET      FOG       51  50  96 SE12      29.84S VSB 1/4
MARTHAS VNYRD  FOG      N/A N/A N/A VRB5      29.82S VSB 1/4
$$

MAZALL-270400-
CENTRAL AND WESTERN MASSACHUSETTS

CITY           SKY/WX    TMP DP  RH WIND       PRES   REMARKS
WORCESTER      CLOUDY    53  52  96 N5        29.85S
FITCHBURG      CLOUDY    56  55  97 NW3       29.86S FOG
ORANGE         CLOUDY    55  55 100 NE5       29.86S
SPRINGFIELD    CLOUDY    57  55  94 N5        29.85R
WESTFIELD      CLOUDY    57  57 100 N6        29.86R FOG
NORTH ADAMS    CLOUDY    58  53  84 E8        29.85S
PITTSFIELD     CLOUDY    56  52  86 CALM      29.84F
$$

RIZALL-270400-
RHODE ISLAND

CITY           SKY/WX    TMP DP  RH WIND       PRES   REMARKS
PROVIDENCE     CLOUDY    57  57 100 SE5       29.85R FOG
NEWPORT        CLOUDY    53  53 100 SE5       29.84S
BLOCK ISLAND   LGT RAIN  52  52 100 N3        29.84S VSB 1
SMITHFIELD     LGT RAIN  57  57 100 NW5       29.85R FOG
WESTERLY       CLOUDY    55  55 100 S3        29.84S FOG
$$

CTZALL-270400-
CONNECTICUT

CITY           SKY/WX    TMP DP  RH WIND       PRES   REMARKS
BRADLEY INTL   DRIZZLE   57  57 100 N7        29.85R FOG
HARTFORD       CLOUDY    58  58 100 N3        29.84S FOG
BRIDGEPORT     CLOUDY    57  53  86 CALM      29.84S
DANBURY        CLOUDY    57  57 100 E5        29.85S
GROTON         CLOUDY    52  52 100 CALM      29.84R FOG
NEW HAVEN      CLOUDY    55  53  93 CALM      29.83S
CHESTER        CLOUDY    59  59 100 CALM      29.84S FOG
MERIDEN        CLOUDY    60  57  89 NW5       29.85R
WILLIMANTIC    CLOUDY    59  58  96 CALM      29.85S
OXFORD         CLOUDY    57  52  82 N3        29.86S VSB 1
$$

MEZ002-015-021-024-NHZ003-005-008-011-012-014-VTZ005-008-270400-
NORTHERN NEW ENGLAND

CITY           SKY/WX    TMP DP  RH WIND       PRES   REMARKS
PORTLAND ME    FOG       50  50 100 VRB7      29.89F VSB 1
BANGOR ME      DRIZZLE   55  55 100 SW3       29.96F FOG
CONCORD NH     CLOUDY    54  53  97 VRB3      29.87S
MANCHESTER NH  DRIZZLE   54  51  90 N6        29.85S FOG
NASHUA NH      LGT RAIN  54  54 100 CALM      29.87R FOG
PORTSMOUTH NH  DRZL/FOG  51  51  99 N5        29.86R VSB 1/8
JAFFREY NH     CLOUDY    53  53 100 CALM      29.86S FOG
KEENE NH       CLOUDY    54  54 100 CALM      29.87S FOG
BURLINGTON VT  CLOUDY    60  54  80 SE7       29.81S
MT. WASHINGTON FOG       45  45 100 SE37        N/A  VSB 0
$$

NYZ052-076-270400-
EASTERN NEW YORK

CITY           SKY/WX    TMP DP  RH WIND       PRES   REMARKS
ALBANY         CLOUDY    62  54  74 S7        29.83R
NEW YORK CITY  CLOUDY    58  55  90 CALM      29.84R
$$

ANZALL-270400-
MARINE OBSERVATIONS

STATION/POSITION TIME  TEMP    WIND        PRES    VSBY  WAVE
                       AIR SEA DIR/SP/G                  HT/PER
                 (UTC) (F)     (DEG/KT/KT) (MB)    (MI)  (FT/S)
BOSTON BUOY      0150   47 47  110/  6/  8 1008.7          5/ 7
BUZZARDS BAY     0200   48     170/  3/  4 1010.5R
NANTUCKET SOUND  0250      49              1009.6F         2/ 5
MASS BAY-STELLWA 0204   47 45   30/  6/  6 1009.4S         5/ 8
ISLE OF SHOALS   0200   48      20/  5/  6 1010.8R
S OF BLOCK IS    0255      47                N/A          11/11
$$

......................KEY.........................
  SKY/WX - SKY CONDITION/PRESENT WEATHER
  TMP    - TEMPERATURE IN FAHRENHEIT
  DWPT   - DEWPOINT IN FAHRENHEIT
  RH     - RELATIVE HUMIDITY IN PERCENT
  WIND   - DIRECTION AND SPEED IN MPH
  PRES   - MEAN SEA LEVEL PRESSURE IN INCHES OF HG
  WCI    - WIND CHILL INDEX
  VSB    - VISIBILITY IN MILES
  HX     - HEAT INDEX
  TC     - TEMPERATURE IN CELSIUS
  VRB    - VARIABLE WIND DIRECTION
  N/A    - NOT AVAILABLE




USA.gov is the U.S. government's official web portal to all federal, state and local government web resources and services.